Weather History for Kenosha, WI

Change the Weather History Date:

Saturday, October 13, 2012

  Actual Average Record
Temperature  
Mean Temperature 54 °F -  
Max Temperature 64 °F 59 °F 88 °F (1975)
Min Temperature 44 °F 42 °F 29 °F (1988)
Degree Days  
Heating Degree Days 11    
Growing Degree Days 4 (Base 50)    
Moisture  
Dew Point 49 °F    
Average Humidity 81    
Maximum Humidity 93    
Minimum Humidity 52    
Precipitation  
Precipitation 0.28 in - - ()
Sea Level Pressure  
Sea Level Pressure 29.96 in    
Wind  
Wind Speed 10 mph (South)    
Max Wind Speed 17 mph    
Max Gust Speed 23 mph    
Visibility 6 miles    
Events Rain    
Averages and records for this station are not official NWS values.
T = Trace of Precipitation, MM = Missing Value Source: NWS Daily Summary

Daily Weather History Graph

Daily Weather History Graph

Search for Another Location

Airport:

Trip Planner

Search our weather history database for the weather conditions in past years. The results will help you decide how hot, cold, wet, or windy it might be!

Date:

Astronomy

Oct. 13, 2012 Rise Set
Actual Time 7:03 AM CDT 6:11 PM CDT
Civil Twilight 6:34 AM CDT 6:40 PM CDT
Nautical Twilight 6:02 AM CDT 7:12 PM CDT
Astronomical Twilight 5:29 AM CDT 7:45 PM CDT
Moon 4:50 AM CDT (10/13) 4:56 PM CDT (10/13)
Length of Visible Light 12h 05m
Length of Day
11h 08m
Waning Crescent, 5% of the Moon is Illuminated
Oct 13
Waning Crescent
Oct 15
New
Oct 21
First Quarter
Oct 29
Full
Nov 6
Last Quarter

Hourly Weather History & Observations

Time (CDT) Temp. Windchill Dew Point Humidity Pressure Visibility Wind Dir Wind Speed Gust Speed Precip Events Conditions
1:53 AM 46.0 °F 42.5 °F 35.1 °F 66% 30.24 in 10.0 mi SSE 6.9 mph - N/A   Mostly Cloudy
2:53 AM 48.0 °F - 30.9 °F 52% 30.19 in 10.0 mi South 9.2 mph - 0.00 in Rain Light Rain
3:53 AM 46.9 °F - 32.0 °F 56% 30.15 in 10.0 mi South 9.2 mph - 0.00 in Rain Light Rain
4:53 AM 44.1 °F 39.5 °F 37.0 °F 76% 30.14 in 5.0 mi South 8.1 mph - 0.09 in Rain Rain
5:53 AM 46.0 °F 41.0 °F 37.9 °F 73% 30.12 in 10.0 mi SSE 10.4 mph - 0.02 in   Overcast
6:53 AM 46.0 °F 41.4 °F 39.0 °F 76% 30.10 in 9.0 mi SSE 9.2 mph - 0.04 in Rain Light Rain
7:53 AM 46.0 °F 43.1 °F 42.1 °F 86% 30.10 in 10.0 mi East 5.8 mph - 0.00 in   Overcast
8:53 AM 48.0 °F - 42.1 °F 80% 30.04 in 10.0 mi SE 9.2 mph - 0.00 in   Overcast
9:53 AM 52.0 °F - 44.1 °F 74% 30.01 in 10.0 mi SSE 12.7 mph - N/A   Overcast
10:53 AM 54.0 °F - 46.9 °F 77% 29.98 in 10.0 mi South 11.5 mph - N/A   Overcast
11:49 AM 55.4 °F - 50.0 °F 82% 29.96 in 7.0 mi SSW 12.7 mph - 0.00 in Rain Light Rain
11:53 AM 55.0 °F - 50.0 °F 83% 29.96 in 6.0 mi SSW 12.7 mph - 0.00 in Rain Light Rain
12:41 PM 55.4 °F - 51.8 °F 88% 29.90 in 4.0 mi SSW 10.4 mph - 0.04 in Rain Light Rain
12:53 PM 55.0 °F - 52.0 °F 89% 29.90 in 5.0 mi South 9.2 mph - 0.04 in Rain Light Rain
1:53 PM 55.9 °F - 53.1 °F 90% 29.89 in 5.0 mi SSW 12.7 mph - 0.00 in Rain Light Rain
3:53 PM 57.9 °F - 55.0 °F 90% 29.83 in 3.0 mi SSW 8.1 mph - 0.02 in Rain Light Rain
4:53 PM 59.0 °F - 57.0 °F 93% 29.82 in 2.5 mi SSW 11.5 mph - 0.07 in   Overcast
5:53 PM 61.0 °F - 59.0 °F 93% 29.80 in 2.5 mi SSW 17.3 mph 23.0 mph N/A   Overcast
7:53 PM 64.0 °F - 60.1 °F 87% 29.82 in 4.0 mi SW 12.7 mph - N/A   Overcast
8:51 PM 64.4 °F - 60.8 °F 88% 29.80 in 3.0 mi SSW 10.4 mph - N/A   Overcast
8:53 PM 64.0 °F - 61.0 °F 90% 29.81 in 3.0 mi SSW 10.4 mph - N/A   Overcast
9:00 PM 64.4 °F - 60.8 °F 88% 29.80 in 3.0 mi SSW 10.4 mph - N/A   Overcast
9:53 PM 64.0 °F - 61.0 °F 90% 29.80 in 4.0 mi SSW 10.4 mph - N/A   Overcast